Location: Alando
(42.3054°N, 9.2895°E)
Time: 18:49:53
(UTC+00:00)

MOS 1 - Pass Details

Date: 09 April 2020
Orbit: 879 x 891 km, 99.2° (Epoch: 03 June)

Event Time Altitude Azimuth Distance (km) Brightness Sun altitude
Rises 19:09:59 0° 169° (S) 3,464 7.0 -13.5°
Reaches altitude 10° 19:12:22 10° 171° (S) 2,531 6.4 -13.9°
Maximum altitude 19:17:59 75° 256° (WSW) 917 4.5 -14.8°
Drops below altitude 10° 19:23:41 10° 342° (NNW) 2,555 7.3 -15.7°
Sets 19:26:06 0° 345° (NNW) 3,500 8.1 -16.1°
